"Pseudo-MPEC" for C370QC2

Created 2020 Sep 17 10:07:11 UT using Find_Orb

Click here for an explanation of pseudo-MPECs

 
 Astrometry: 
     C370QC2  C2020 09 06T)B`Ew,(c,4$rRAstrometry)sZn?5LH%G?blTE18Tn4:mfuO`/TF51
     C370QC2  C2020 09 06X7,v_%f1ME3F-%T-jm;8'/+Gc[wredacted;IDQ[`hA7MclickG#F51
     C370QC2  C2020 09 088NHKO/*)pNP1f2tLY]-V`Qavhere8)=O0,IG.Nv=3Yha0y(vNT/1F51
     C370QC2  C2020 09 08;fLF'H^1?gA8MD_[M5S`nA!Xt).H74,^`Sebkv[3rs`p2vCGO]J_F51
     C370QC2  C2020 09 08NxBfor]GZ!5f_O?Jk1!LDM^C2explanationZgZcJP3c$2,;3@p,F51
     C370QC2  C2020 09 13U+Zvk5HibHM_5bo%+y9nW%sl@in'ySa3ORHQAdHI5d*^j57]]nb8F51
     C370QC2  C2020 09 14g.21V9d/w^,y5'ci*fXnJp8_-uC75CEG.U;rdoonl]15gRH6NJ9(F52
     C370QC2  C2020 09 15.44169 01 33 39.39 -13 29 36.9    ~9FBM 20.7 GVNEOCPG96
     C370QC2  C2020 09 15.44687 01 33 42.66 -13 29 05.8    ~9FBM 20.4 GVNEOCPG96
     C370QC2  C2020 09 15.45205 01 33 45.98 -13 28 33.5    ~9FBM 20.5 GVNEOCPG96
     C370QC2  C2020 09 15.45722 01 33 49.23 -13 28 02.0    ~9FBM 21.2 GVNEOCPG96
     C370QC2  C2020 09 15.47215 01 33 58.70 -13 26 30.8    ~9FBb 20.3 GVNEOCPI52
     C370QC2  C2020 09 15.47383 01 33 59.76 -13 26 20.9    ~9FBb 20.5 GVNEOCPI52
     C370QC2  C2020 09 15.47551 01 34 00.75 -13 26 10.5    ~9FBb 20.3 GVNEOCPI52
     C370QC2  C2020 09 15.49138 01 34 10.83 -13 24 33.6    ~9FC7 19.9 GVNEOCPI52
     C370QC2  C2020 09 15.49306 01 34 11.93 -13 24 23.0    ~9FC7 21.2 GVNEOCPI52
     C370QC2  C2020 09 15.49474 01 34 13.03 -13 24 13.9    ~9FC7 20.8 GVNEOCPI52
     C370QC2  C2020 09 16.45546 01 44 56.74 -11 46 14.1    ~9GBM 20.6 GVNEOCPG96
     C370QC2  C2020 09 16.45604 01 44 57.12 -11 46 10.2    ~9GBM 20.8 GVNEOCPG96
     C370QC2  C2020 09 16.45662 01 44 57.48 -11 46 07.1    ~9GBM 20.6 GVNEOCPG96
     C370QC2 KC2020 09 17.06628501 51 43.19 -10 43 06.8    ~9H2M 20.6 GVNEOCPI93
     C370QC2 KC2020 09 17.07360801 51 47.73 -10 42 21.0    ~9H2M 20.1 GVNEOCPI93
     C370QC2 KC2020 09 17.08092801 51 52.26 -10 41 35.1    ~9H2M 20.7 GVNEOCPI93
     C370QC2  C2020 09 17.29701 01 54 17.45 -10 18 39.3    ~9H7b       VNEOCPV06
     C370QC2  C2020 09 17.29809 01 54 18.18 -10 18 32.6    ~9H7b 20.8 GVNEOCPV06

Station data:
(F51) Pan-STARRS 1, Haleakala  (N20.707235 W156.255910)  US/Hawaii.
   Observers N. Primak, A. Schultz, S. Watters, J. Thiel, T. Goggia. Measurer
   PS1 Science Consortium. 1.8-m Ritchey-Chrétien + CCD.
(F52) Pan-STARRS 2, Haleakala  (N20.707384 W156.255910)  US/Hawaii. 1.8-m
   Ritchey-Chrétien + CCD.
(G96) Mt. Lemmon Survey  (N32.442754 W110.788720)  US/Arizona.  Observers T.
   A. Pruyne, B. M. Africano, E. J. Christensen, G. A. Farneth, D. C. Fuls,
   A. R. Gibbs, A. D. Grauer, H. Gröller, J. A. Johnson, R. A. Kowalski, S.
   M. Larson, G. J. Leonard, D. Rankin, R. L. Seaman, F. C. Shelly. 1.5-m
   reflector + 10K CCD.
(I52) Steward Observatory, Mt. Lemmon Station  (N32.442547 W110.788920)
   US/Arizona.  Observers T. A. Pruyne, B. M. Africano, E. J. Christensen, G.
   A. Farneth, D. C. Fuls, A. R. Gibbs, A. D. Grauer, H. Gröller, J. A.
   Johnson, R. A. Kowalski, S. M. Larson, G. J. Leonard, D. Rankin, R. L.
   Seaman, F. C. Shelly. 1.0-m reflector + CCD.
(I93) St Pardon de Conques  (N44.558710 W0.203000)  France.  Observer F.
   Losse. 0.40-m f/3.7 reflector + CCD.
(V06) Catalina Sky Survey-Kuiper  (N32.416847 W110.732550)  US/Arizona.
   Observers T. A. Pruyne, B. M. Africano, E. J. Christensen, G. A. Farneth,
   D. C. Fuls, A. R. Gibbs, A. D. Grauer, H. Gröller, J. A. Johnson, R. A.
   Kowalski, S. M. Larson, G. J. Leonard, D. Rankin, R. L. Seaman, F. C.
   Shelly. 1.55-m reflector + CCD.

Orbital elements:  C370QC2
   Perihelion 2020 Sep 25.397742 +/- 0.00795 TT =  9:32:44 (JD 2459117.897742)
Epoch 2020 Sep 17.0 TT = JDT 2459109.5   Earth MOID: 0.0594   Ma: 0.0132
M 357.67884130 +/- 0.017            (J2000 ecliptic)          AutoNEOCP
n   0.27640272 +/- 0.00178          Peri.  332.54572 +/- 0.019
a   2.33403751 +/- 0.01             Node    32.74964 +/- 0.018
e   0.5464663 +/- 0.00188           Incl.    2.21055 +/- 0.0055
P   3.57                   H 25.3   G  0.15   U  8.5  
q 1.05856460 +/- 0.00017    Q 3.60951041 +/- 0.0201
From 25 observations 2020 Sept. 6-17; mean residual 0".37
Residuals in arcseconds: 
200906 F51  .00   .13+    200915 G96  .35+  .30+    200916 G96  .09+  .44+    
200906 F51  .45-  .26-    200915 G96  .14+  .29+    200916 G96  .08+  .08-    
200908 F51  .23+  .27+    200915 I52  .53+  .32+    200917 I93  .34-  .36+    
200908 F51  .65+  .30+    200915 I52  .46+  .05-    200917 I93  .06-  .39+    
200908 F51  .19-  .21-    200915 I52  .63-  .08+    200917 I93  .12+  .50+    
200913 F51  .12+  .08-    200915 I52  .62-  .22-    200917 V06  .24-  .42-    
200914 F52  .13-  .13-    200915 I52  .17-  .07+    200917 V06  .72+  .42-    
200915 G96  .49-  .03-    200915 I52  .27+  1.1-    
200915 G96  .42-  .45-    200916 G96  .20-  .17+    

Ephemerides (geocentric):
Date (UTC) HH   RA              Dec         delta   r     elong  mag " sig PA
---- -- -- --  -------------   -----------  ------ ------ -----  --- ---- ---
2020 09 17 10  01 55 31.151   -10 04 45.35  .06960 1.0631 145.5 21.0 .336 167
2020 09 17 11  01 55 58.242   -10 00 23.27  .06960 1.0631 145.5 21.0 .339 166
2020 09 17 12  01 56 25.306   -09 56 01.07  .06961 1.0630 145.4 21.0 .343 165
2020 09 17 13  01 56 52.345   -09 51 38.76  .06961 1.0630 145.3 21.0 .346 165
2020 09 17 14  01 57 19.357   -09 47 16.34  .06962 1.0630 145.3 21.0 .350 164
2020 09 17 15  01 57 46.342   -09 42 53.81  .06963 1.0629 145.2 21.0 .354 163
2020 09 17 16  01 58 13.301   -09 38 31.19  .06964 1.0629 145.2 21.0 .357 163
2020 09 17 17  01 58 40.232   -09 34 08.47  .06965 1.0628 145.1 21.0 .361 162
2020 09 17 18  01 59 07.136   -09 29 45.66  .06965 1.0628 145.0 21.0 .365 162
2020 09 17 19  01 59 34.013   -09 25 22.76  .06966 1.0627 145.0 21.0 .369 161
2020 09 17 20  02 00 00.862   -09 20 59.79  .06967 1.0627 144.9 21.0 .373 160
2020 09 17 21  02 00 27.683   -09 16 36.73  .06968 1.0626 144.8 21.0 .377 160
2020 09 17 22  02 00 54.476   -09 12 13.61  .06969 1.0626 144.8 21.0 .382 159
2020 09 17 23  02 01 21.241   -09 07 50.41  .06970 1.0625 144.7 21.0 .386 158
2020 09 18 00  02 01 47.977   -09 03 27.16  .06971 1.0625 144.7 21.0 .390 158
2020 09 18 01  02 02 14.684   -08 59 03.84  .06973 1.0625 144.6 21.0 .395 157
2020 09 18 02  02 02 41.363   -08 54 40.47  .06974 1.0624 144.5 21.0 .399 157
2020 09 18 03  02 03 08.012   -08 50 17.05  .06975 1.0624 144.5 21.0 .404 156
2020 09 18 04  02 03 34.632   -08 45 53.58  .06976 1.0623 144.4 21.0 .408 156
2020 09 18 05  02 04 01.222   -08 41 30.08  .06978 1.0623 144.3 21.1 .413 155
2020 09 18 06  02 04 27.782   -08 37 06.53  .06979 1.0622 144.3 21.1 .418 155
2020 09 18 07  02 04 54.313   -08 32 42.96  .06980 1.0622 144.2 21.1 .422 154
2020 09 18 08  02 05 20.813   -08 28 19.35  .06982 1.0622 144.1 21.1 .427 154
2020 09 18 09  02 05 47.283   -08 23 55.73  .06983 1.0621 144.1 21.1 .432 153
2020 09 18 10  02 06 13.722   -08 19 32.08  .06985 1.0621 144.0 21.1 .437 153
2020 09 18 11  02 06 40.131   -08 15 08.42  .06986 1.0620 144.0 21.1 .442 152
2020 09 18 12  02 07 06.509   -08 10 44.75  .06988 1.0620 143.9 21.1 .447 152
2020 09 18 13  02 07 32.855   -08 06 21.07  .06990 1.0619 143.8 21.1 .452 151
2020 09 18 14  02 07 59.170   -08 01 57.39  .06991 1.0619 143.8 21.1 .457 151
2020 09 18 15  02 08 25.454   -07 57 33.72  .06993 1.0619 143.7 21.1 .463 150
2020 09 18 16  02 08 51.706   -07 53 10.05  .06995 1.0618 143.6 21.1 .468 150
2020 09 18 17  02 09 17.926   -07 48 46.39  .06996 1.0618 143.6 21.1 .473 149
2020 09 18 18  02 09 44.114   -07 44 22.75  .06998 1.0617 143.5 21.1 .479 149
2020 09 18 19  02 10 10.270   -07 39 59.13  .07000 1.0617 143.4 21.1 .484 148
2020 09 18 20  02 10 36.393   -07 35 35.53  .07002 1.0617 143.4 21.1 .490 148
2020 09 18 21  02 11 02.484   -07 31 11.96  .07004 1.0616 143.3 21.1 .495 148
2020 09 18 22  02 11 28.542   -07 26 48.42  .07006 1.0616 143.3 21.1 .501 147
2020 09 18 23  02 11 54.567   -07 22 24.92  .07008 1.0615 143.2 21.1 .506 147
2020 09 19 00  02 12 20.559   -07 18 01.47  .07010 1.0615 143.1 21.1 .512 146
2020 09 19 01  02 12 46.517   -07 13 38.06  .07012 1.0615 143.1 21.1 .518 146
2020 09 19 02  02 13 12.442   -07 09 14.69  .07014 1.0614 143.0 21.1 .524 146
2020 09 19 03  02 13 38.333   -07 04 51.39  .07017 1.0614 142.9 21.1 .529 145
2020 09 19 04  02 14 04.191   -07 00 28.14  .07019 1.0614 142.9 21.1 .535 145
2020 09 19 05  02 14 30.014   -06 56 04.95  .07021 1.0613 142.8 21.1 .541 145
2020 09 19 06  02 14 55.804   -06 51 41.83  .07023 1.0613 142.7 21.1 .547 144
2020 09 19 07  02 15 21.559   -06 47 18.78  .07026 1.0612 142.7 21.1 .553 144
2020 09 19 08  02 15 47.279   -06 42 55.80  .07028 1.0612 142.6 21.1 .559 144
2020 09 19 09  02 16 12.965   -06 38 32.90  .07031 1.0612 142.6 21.1 .565 143